Retour au catalogue

STARLINK-37103

ActifCommunicationsVLEO
NORAD 68267·PAYLOAD·🇺🇸 United States

Lancé Mar 19, 2026 depuis Vandenberg Space Force Base

Loading…

Prochains Passages (prochaines 24 heures)

TLE

FraisSource: CelesTrak SupGP

Époque: Sep 14, 2026, 22:52 UTC

1 68267C 26055F   26257.95326389 -.00064533  00000+0 -19064-2 0  2575
2 68267  53.1565 155.3493 0001300  85.8292 353.2842 15.34426428    11

Suivez STARLINK-37103 en temps réel avec AllMySat

Download on the App Store